OIKQ  Dayrestan Airport

Add Bookmark

Iran

Status
Operational
Latitude Longitude
26° 45' 16" N 55° 54' 8" E
26.754601 55.902401
Local (DST + 5) UTC (GMT + 4)
Jul 30, 2014 01:22 Jul 29, 2014 20:52
Sunrise-Sunset Local UTC
Begin Civil Twilight 05:43 01:13
Sunrise 06:08 01:38
Sunset 07:36 15:06
End Civil Twilight 08:01 15:31

Current Weather

METAR Observed MVFR
OIKQ 291700Z 22012KT 6000 NSC 33/28 Q0994 Tue, Jul 29, 2014 @ 17:00 UTC
(3 Hours, 52 Minutes ago)
Marginal Visual Flight Rules

Decoded METAR

Wind Visibility Clouds Conditions
220° at 12 knots (22 kph) 6000 meters
  • Clear skies
  • No significant weather
Temperatures Readings Precipitation
Current Temp 33°C (91°F)
Dewpoint 28°C (82°F)
Heat Index 45°C (113°F)
Humidity 75%
Altimeter 29.35"Hg
Sea Level Pressure 994mb
Field Elevation 39.37'
None Recorded

Additional weather within a 92.6km radius of OIKQ

Map ICAO Location
OIKB 69.8km N (042°)

24 Hour Weather History

Loading
-

24 Hour Weather Graphs

Loading
-

CheckWX.com is intended as a tool to help pilots better visualize weather data. It is not intended as a substitute for an official weather briefing obtained from a Flight Service Station. CheckWX.com does not meet the FAA requirements for an official pre-flight weather briefing. Therefore, it's important that pilots still call and obtain an official FSS pre-flight weather briefing.